Location: Unspecified
(0.0000°N, 0.0000°E)
Time: 02:48:23
(UTC+00:00)

ISS - Pass Details

Date: 31 January 2013
Orbit: 402 x 404 km, 51.6° (Epoch: 25 May)

Event Time Altitude Azimuth Distance (km) Brightness Sun altitude
Rises 18:34:24 0° 208° (SSW) 2,308 1.3 -5.0°
Reaches altitude 10° 18:36:30 10° 202° (SSW) 1,449 0.1 -5.5°
Maximum altitude 18:39:40 50° 126° (SE) 517 -3.0 -6.2°
Drops below altitude 10° 18:42:50 10° 48° (NE) 1,454 -1.1 -7.0°
Enters shadow 18:43:26 - 46° (NE) 1,693 -0.7 -7.1°
